Regional Weather Roundup
Issued by NWS

Home | Current Version | Previous Version | Graphics & Text | Print | Product List | Glossary On
Versions: 1 2 3 4 5 6 7 8 9 10 11 12 13 14 15 16 17 18 19 20 21 22 23 24 25 26 27 28 29 30 31 32 33 34 35 36 37 38 39 40 41 42 43 44 45 46 47 48 49 50
000
ASUS45 KABQ 192310
RWRNM
NEW MEXICO REGIONAL WEATHER ROUNDUP
NATIONAL WEATHER SERVICE ALBUQUERQUE NM
500 PM MDT TUE SEP 19 2017

NOTE: "FAIR" MEANS FEW OR NO CLOUDS BELOW 12,000 FEET AGL WITH NO
       SIGNIFICANT WEATHER OR OBSTRUCTIONS TO VISION.

      THIS PRODUCT IS RELEASED AS TWO VERSIONS.  ONE VERSION NEAR
      THE TOP OF THE HOUR CONTAINING PRELIMINARY DATA FROM ALBUQUERQUE
      AND OTHER STATIONS.  A FINAL VERSION WITH ADDITIONAL DATA IS
      ISSUED ABOUT 10 MINUTES AFTER THE HOUR.

NMZ501-503-504-510>518-200000-
NORTHWEST PLATEAU/NORTHCENTRAL MOUNTAINS

CITY           SKY/WX    TMP DP  RH WIND       PRES   REMARKS
FARMINGTON     FAIR      82  18   9 W16       29.86F
LOS ALAMOS     FAIR      76  12   9 SW17G25   30.02S
SANTA FE       FAIR      82  12   7 W18G26    29.95F
TAOS           FAIR      77  12   8 W26G35    30.00R
ANGEL FIRE     FAIR      66  15  14 W18G26    30.04F

$$
NMZ402-403-502-505>509-200000-
WESTCENTRAL MOUNTAINS/SOUTHWEST MOUNTAINS

CITY           SKY/WX    TMP DP  RH WIND       PRES   REMARKS
GALLUP         FAIR       0   0 100 CALM      30.00
GRANTS         FAIR      79  16   9 W22G29    30.02F
SILVER CITY    FAIR      83  42  23 W24G30    30.02F

$$
NMZ407-409-411-412-200000-
SOUTHERN DESERTS

CITY           SKY/WX    TMP DP  RH WIND       PRES   REMARKS
DEMING         FAIR      89  48  24 W20G31    29.92F
LAS CRUCES     FAIR      90  43  19 W22       29.94S
HOLLOMAN AFB   FAIR      91  40  16 W22G29    29.89F
ALAMOGORDO     FAIR      90  41  18 W9G26     29.90F
T OR C         FAIR      90  37  15 W14G23    29.91F

$$
NMZ519>523-200000-
CENTRAL VALLEYS/CENTRAL HIGHLANDS

CITY           SKY/WX    TMP DP  RH WIND       PRES   REMARKS
ALBUQUERQUE    FAIR      86  14   7 W17G28    29.91F
DOUBLE EAGLE   MOSUNNY   84  19   9 W25G31    29.95F
MORIARTY ARPT  FAIR      85  23  10 W23G36    29.98S
CLINES CORNERS NOT AVBL
BELEN          FAIR      89  23   9 W18G24    29.89F
SOCORRO        FAIR      90  29  11 W13G22    29.89S

$$
NMZ524>526-539-540-200000-
SOUTHCENTRAL MOUNTAINS

CITY           SKY/WX    TMP DP  RH WIND       PRES   REMARKS
RUIDOSO        FAIR      77  37  24 W15G29    30.07F

$$
NMZ527>531-200000-
NORTHEAST HIGHLANDS/NORTHEAST PLAINS

CITY           SKY/WX    TMP DP  RH WIND       PRES   REMARKS
LAS VEGAS      FAIR      74  15  10 W25       29.95S
RATON          FAIR      76  17  11 SW24G36   29.84F
CLAYTON        FAIR      84  25  11 SW21G28   29.76F

$$
NMZ532>537-200000-
EASTCENTRAL PLAINS

CITY           SKY/WX    TMP DP  RH WIND       PRES   REMARKS
SANTA ROSA     FAIR      88  31  13 SW21G31   29.82F
TUCUMCARI      FAIR      94  30  10 W23G38    29.75S
CANNON AFB     FAIR      90  38  15 SW16      29.84S
CLOVIS AIRPORT FAIR      90  42  18 SW22      29.83F

$$
NMZ028-029-538-200000-
SOUTHEAST PLAINS

CITY           SKY/WX    TMP DP  RH WIND       PRES   REMARKS
ROSWELL        FAIR      96  39  13 SW15G23   29.80F
ARTESIA        FAIR      95  43  16 W17G29    29.81F
CARLSBAD       FAIR      96  42  15 SW18G26   29.79F
HOBBS          SUNNY     93  43  17 SW21      29.83S


$$




USA.gov is the U.S. government's official web portal to all federal, state and local government web resources and services.